Regional Weather Roundup
Issued by NWS

Home | Current Version | Previous Version | Text Only | Print | Product List | Glossary Off
Versions: 1 2 3 4 5 6 7 8 9 10 11 12 13 14 15 16 17 18 19 20 21 22 23 24 25 26 27 28 29 30 31 32 33 34 35 36 37 38 39 40 41 42 43 44 45 46 47 48 49 50

000
ASUS43 KIND 250259
RWRIN

WEATHER ROUNDUP FOR INDIANA
NATIONAL WEATHER SERVICE INDIANAPOLIS IN
1100 PM EDT FRI MAR 24 2017

NOTE: "FAIR" INDICATES FEW OR NO CLOUDS BELOW 12,000 FEET WITH NO
SIGNIFICANT WEATHER AND/OR OBSTRUCTIONS TO VISIBILITY.

* - STATION DOES NOT REPORT WEATHER SUCH AS PRECIPITATION OR FOG.

+ - STATION NOT QUALITY CONTROLLED BY THE NATIONAL WEATHER SERVICE.
    USE DATA WITH CAUTION...ESPECIALLY DEWPOINT AND RELATIVE
    HUMIDITY OBSERVATIONS.

INZ001>003-010>013-019-020-250400-
NORTHWEST INDIANA

CITY           SKY/WX    TMP DP  RH WIND       PRES   REMARKS
GARY /AIRPORT/ LGT RAIN  41  39  93 N5        30.07R
KNOX *+        MOCLDY    57  28  33 NW12      30.02R
MONTICELLO +   CLOUDY    64  54  68 S10       30.02S

$$

LMZ046-743>745-250400-
SOUTHERN LAKE MICHIGAN

STATION/POSITION TIME  TEMP    WIND        PRES    WAVE
                       AIR SEA DIR/SP/G            HT
                 (UTC) (F)     (DEG/KT/KT) (MB)    (FT)
BURNS HARBOR     0240   39     320/  4/ 20 1018.6S
MICHIGAN CITY    0230   41      70/  7/  7   N/A

$$

INZ004-005-014>016-021>024-250400-
NORTH CENTRAL INDIANA

CITY           SKY/WX    TMP DP  RH WIND       PRES   REMARKS
GOSHEN         CLOUDY    64  52  64 S12       30.02R
SOUTH BEND     MOCLDY    55  46  71 NW8       30.04R

$$

INZ006>009-017-018-025>027-250400-
NORTHEAST INDIANA

CITY           SKY/WX    TMP DP  RH WIND       PRES   REMARKS
ANGOLA *+      CLEAR     64  55  72 SW12      30.03S
FORT WAYNE     CLOUDY    62  52  69 SW9       30.06S
KENDALLVILLE + MOCLDY    64  53  68 SW13      30.05R

$$

INZ028-029-035-036-043>045-051>053-250400-
WEST CENTRAL INDIANA

CITY           SKY/WX    TMP DP  RH WIND       PRES   REMARKS
CRAWFORDSVL +  CLOUDY    63  53  70 S10       30.07S
LAFAYETTE      CLOUDY    65  55  70 S9        30.04R
TERRE HAUTE    CLOUDY    66  52  60 S10       30.07S

$$

INZ030>032-037>040-046>048-054>057-064-065-250400-
CENTRAL INDIANA

CITY           SKY/WX    TMP DP  RH WIND       PRES   REMARKS
INDIANAPOLIS   CLOUDY    64  52  64 S8        30.08S
-EAGLE CREEK   CLOUDY    68  52  56 S7        30.08S
KOKOMO +       CLOUDY    64  54  69 SW14      30.06F
SHELBYVILLE    CLOUDY    64  51  62 S8        30.10S

$$

INZ033-034-041-042-049-050-058-059-250400-
EAST CENTRAL INDIANA

CITY           SKY/WX    TMP DP  RH WIND       PRES   REMARKS
MUNCIE         CLOUDY    68  52  56 SW10      30.07F
RICHMOND +     CLOUDY    61  52  72 SW10      30.13R

$$

INZ060-061-067>069-081>083-085>088-250400-
SOUTHWEST INDIANA

CITY           SKY/WX    TMP DP  RH WIND       PRES   REMARKS
EVANSVILLE     CLOUDY    63  51  65 E3        30.10R
HUNTINGBURG *+ CLOUDY    65  52  62 SE3       30.11S

$$

INZ062-063-066-070>080-084-089>092-250400-
SOUTH CENTRAL AND SOUTHEAST INDIANA

CITY           SKY/WX    TMP DP  RH WIND       PRES   REMARKS
BLOOMINGTON    PTCLDY    67  51  56 SW9       30.10F
MADISON *+     MOCLDY    63  50  63 SW6       30.16R
SEYMOUR +      CLOUDY    64  54  68 S5        30.12R

$$




USA.gov is the U.S. government's official web portal to all federal, state and local government web resources and services.